Welcome to the New NWS' Forecast!
Most changes are behind the scenes, but click here for differences you might notice.
Latest weather observations around

Demopolis Municipal Airport (KDYA)

Using International System of Units (Switch to English Units)
Date/ Time (CDT) Wind (kph) Vis. (km) Weather Sky Cond. Temp (°C) Rel. Humidity Wind Chill (°C) Heat Index (°C) Pressure Precip. (cm)
Air Dwpt 6 hour Altimeter (hPa) Sea level (hPa) 1 hr 3 hr 6 hr
Max Min
Aug 15 22:35 SSE 8   Clear CLR 27 23     79%   29 1017.3        
Aug 15 22:15 SSE 5   Clear CLR 27 23     78%   29 1017.3        
Aug 15 21:55 SE 8   Clear CLR 27 23     80%   29 1017.3        
Aug 15 21:35 SE 5   Clear CLR 27 23     79%   30 1017.3        
Aug 15 21:15 ESE 5   Clear CLR 27 23     81%   29 1016.9        
Aug 15 20:55 ESE 5   Clear CLR 27 23     82%   29 1016.6        
Aug 15 20:35 Calm   Clear   26 24     89%   28 1016.6        
Aug 15 20:15 Calm   Clear   27 24     87%   29 1016.6        
Aug 15 19:55 Calm   Clear CLR 27 25     84%   31 1016.6        
Aug 15 19:35 Calm   Clear CLR 28 25     83%   32 1016.3        
Aug 15 19:15 Calm   Clear CLR 29 25     80%   34 1015.9        
Aug 15 18:55 Calm   Clear CLR 30 25     75%   35 1015.9        
Aug 15 18:35 Calm   Clear CLR 32 23     59%   37 1015.9        
Aug 15 18:15 E 5   Clear CLR 33 22     54%   37 1015.9        
Aug 15 17:55 Calm   Clear CLR 33 22     51%   37 1015.9        
Aug 15 17:35 SE 5   Clear CLR 34 22     50%   37 1016.3        
Aug 15 17:15 ESE 5   Clear CLR 34 22     49%   38 1015.9        
Aug 15 16:55 SE 5   Clear CLR 34 21     48%   38 1016.3        
Aug 15 16:35 Calm   Clear CLR 34 21     47%   37 1016.3        
Aug 15 16:15 ESE 9   Partly Cloudy SCT046 34 22     48%   38 1016.6        
Aug 15 15:55 ENE 5   Partly Cloudy SCT046 34 22     48%   38 1016.6        
Aug 15 15:35 Calm   Partly Cloudy SCT048 33 21     49%   35 1016.6        
Aug 15 15:15 Calm   Partly Cloudy SCT048 34 20     45%   36 1016.9        
Aug 15 14:55 SE 5   Clear CLR 33 20     45%   36 1016.9        
Aug 15 14:35 E 11   Clear CLR 34 20     45%   36 1016.9        
Aug 15 14:15 E 9   Clear CLR 33 19     43%   35 1017.3        
Aug 15 13:55 SSE 8   Clear CLR 33 20     46%   36 1017.6        
Aug 15 13:35 E 9   Clear CLR 33 20     46%   35 1017.6        
Aug 15 13:15 Calm   Clear CLR 32 20     48%   35 1018        
Aug 15 12:55 ENE 9   Clear CLR 32 21     52%   35 1018        
Aug 15 12:35 Calm   Clear CLR 32 21     53%   35 1018        
Aug 15 12:15 NNE 8   Clear CLR 32 21     52%   34 1018        
Aug 15 11:55 Calm   Clear CLR 31 21     55%   34 1018.3        
Aug 15 11:35 E 8   Clear CLR 31 22     59%   35 1018.3        
Aug 15 11:15 Calm   Clear CLR 31 22     59%   34 1018.3        
Aug 15 10:55 E 5   Clear CLR 30 22     60%   33 1018.3        
Aug 15 10:35 Calm   Clear CLR 30 22     63%   33 1018.3        
Aug 15 10:15 ESE 5   Clear CLR 29 22     66%   32 1018.3        
Aug 15 09:55 SSE 5   Clear CLR 29 22     67%   32 1018.3        
Aug 15 09:35 Calm   Clear CLR 28 22     72%   30 1018.3        
Aug 15 09:15 ESE 5   Clear CLR 27 23     76%   29 1018        
Aug 15 08:55 SE 5   Clear CLR 26 22     81%   27 1018.3        
Aug 15 08:35 SE 8   Clear   25 22     87%   25 1018.3        
Aug 15 08:15 SE 5   Clear   24 22     92%   24 1018.3        
Aug 15 07:55 Calm   Clear   23 22     99%   23 1018        
Notice The following observation data may not be complete
Aug 15 07:35 Calm   Clear            %     1017.6        
Notice The following observation data may not be complete
Aug 15 07:15 Calm   Clear            %     1017.6        
Notice The following observation data may not be complete
Aug 15 06:55 Calm   Clear            %     1017.3        
Notice The following observation data may not be complete
Aug 15 06:35 Calm   Clear            %     1017.3        
Notice The following observation data may not be complete
Aug 15 06:15 Calm   Clear            %     1017.3        
Notice The following observation data may not be complete
Aug 15 05:55 Calm   Clear            %     1016.9        
Aug 15 05:35 Calm   Clear   21 21     100%     1016.9        
Aug 15 05:15 Calm   Clear   21 21     100%     1016.9        
Aug 15 04:55 Calm   Clear   21 21     100%     1016.9        
Aug 15 04:35 Calm   Clear   21 21     100%     1016.9        
Aug 15 04:15 Calm   Clear   21 21     100%   22 1016.9        
Aug 15 03:55 Calm   Clear   22 22     100%   22 1016.6        
Aug 15 03:35 Calm   Clear   21 21     100%   22 1016.6        
Aug 15 03:15 Calm   Clear   21 21     98%   22 1016.6        
Aug 15 02:55 Calm   Clear   22 21     98%   22 1016.9        
Aug 15 02:35 Calm   Clear   22 21     97%   22 1016.6        
Aug 15 02:15 Calm   Clear   22 21     95%   23 1016.9        
Aug 15 01:55 Calm   Clear   22 21     94%   23 1016.9        
Aug 15 01:35 Calm   Clear   22 21     95%   23 1016.9        
Aug 15 01:15 Calm   Clear   22 21     93%   23 1016.9        
Aug 15 00:55 Calm   Clear   22 21     93%   23 1016.9        
Aug 15 00:35 Calm   Clear   23 21     92%   23 1017.3        
Aug 15 00:15 Calm   Clear   23 21     92%   23 1017.3        
Aug 14 23:55 Calm   Clear   23 22     91%   24 1017.3        
Aug 14 23:35 Calm   Clear   23 22     91%   24 1016.9        
Aug 14 23:15 Calm   Clear   24 22     88%   24 1016.9        
Aug 14 22:55 Calm   Clear   24 22     87%   25 1016.9        
Aug 14 22:35 Calm   Clear   24 22     86%   25 1016.9        
Aug 14 22:15 Calm   Clear CLR 25 22     85%   25 1016.9        
Aug 14 21:55 Calm   Clear CLR 25 22     84%   25 1016.9        
Aug 14 21:35 SE 5   Clear CLR 25 22     82%   26 1016.9        
Aug 14 21:15 ESE 8   Clear CLR 25 23     85%   26 1016.6        
Aug 14 20:55 ESE 5   Clear CLR 26 23     85%   27 1015.9        
Aug 14 20:35 Calm   Clear CLR 26 23     83%   28 1015.6        
Aug 14 20:15 Calm   Clear   26 24     88%   28 1015.2        
Aug 14 19:55 Calm   Clear CLR 27 24     85%   30 1015.2        
Aug 14 19:35 Calm   Clear CLR 28 24     82%   31 1015.6        
Aug 14 19:15 Calm   Clear CLR 29 24     77%   33 1015.6        
Aug 14 18:55 Calm   Clear CLR 30 24     72%   35 1015.6        
Aug 14 18:35 Calm   Clear CLR 31 24     70%   36 1015.6        
Aug 14 18:15 Calm   Clear CLR 31 23     61%   35 1015.6        
Aug 14 17:55 N 5   Clear CLR 31 21     55%   35 1015.6        
Aug 14 17:35 N 9   Clear CLR 32 22     55%   35 1015.6        
Aug 14 17:15 N 5   Clear CLR 32 21     53%   35 1015.2        
Aug 14 16:55 N 8   Clear CLR 32 22     54%   35 1015.2        
Aug 14 16:35 NW 8   Clear CLR 32 21     52%   35 1015.2        
Aug 14 16:15 NNW 8   Clear CLR 33 21     50%   35 1015.2        
Aug 14 15:55 NNW 9   Clear CLR 33 20     47%   35 1015.2        
Aug 14 15:35 NNW 11   Clear CLR 33 19     46%   35 1015.2        
Aug 14 15:15 W 13   Partly Cloudy SCT042 33 21     49%   36 1015.6        
Aug 14 14:55 NW 9   Partly Cloudy SCT042 33 21     51%   36 1015.6        
Aug 14 14:35 NW 5   Partly Cloudy SCT040 SCT046 33 22     53%   36 1015.9        
Aug 14 14:15 NW 9   Clear CLR 32 21     53%   35 1016.3        
Aug 14 13:55 NNW 8   Clear CLR 32 21     53%   35 1016.3        
Aug 14 13:35 W 8   Clear CLR 32 21     53%   34 1016.6        
Aug 14 13:15 NW 11   Clear CLR 31 21     55%   35 1016.9        
Aug 14 12:55 NW 9   Clear CLR 31 22     58%   34 1017.3        
Aug 14 12:35 NW 13   Partly Cloudy SCT029 31 22     58%   34 1017.3        
Aug 14 12:15 W 9   Partly Cloudy SCT029 30 22     61%   33 1017.6        
Aug 14 11:55 NNW 8   Clear CLR 30 22     62%   34 1017.6        
Aug 14 11:35 W 5   Clear CLR 30 22     63%   33 1018        
Aug 14 11:15 WSW 8   Clear CLR 29 22     65%   32 1018        
Aug 14 10:55 W 8   Clear CLR 29 22     69%   32 1018        
Aug 14 10:35 WNW 8   Clear CLR 28 22     72%   30 1018        
Aug 14 10:15 W 5   Clear CLR 27 22     73%   30 1017.6        
Aug 14 09:55 Calm   Clear CLR 27 22     74%   29 1017.6        
Aug 14 09:35 W 5   Clear CLR 26 22     81%   27 1017.6        
Aug 14 08:55 Calm   Clear   24 22     88%   25 1017.6        
Aug 14 08:35 Calm   Clear   24 22     89%   24 1017.3        
Aug 14 07:55 Calm   Clear   23 22     91%   24 1017.3        
Aug 14 07:35 Calm   Clear   23 22     92%   24 1017.3        
Notice The following observation data may not be complete
Aug 14 07:15     Clear            %              
Aug 14 06:35 Calm   Clear   23 23     99%   24 1016.6        
Notice The following observation data may not be complete
Aug 14 06:15     Clear            %              
Aug 14 05:55 Calm   Clear   23 23     100%   23 1016.6        
Notice The following observation data may not be complete
Aug 14 05:35 Calm   Clear            %     1016.6        
Notice The following observation data may not be complete
Aug 14 05:15 W 5   Clear            %     1016.6        
Notice The following observation data may not be complete
Aug 14 04:55 W 5   Clear            %     1016.3        
Notice The following observation data may not be complete
Aug 14 04:35 Calm   Clear            %     1016.3        
Notice The following observation data may not be complete
Aug 14 04:15 Calm   Clear            %     1016.3        
Aug 14 03:35 Calm   Clear   22 22     100%   23 1016.3        
Aug 14 03:15 Calm   Clear   22 22     99%   23 1016.3        
Aug 14 02:55 Calm   Clear   22 22     98%   23 1016.3        
Aug 14 02:35 Calm   Clear   22 22     97%   23 1016.3        
Aug 14 02:15 Calm   Clear   22 22     96%   23 1016.3        
Aug 14 01:55 Calm   Clear   22 21     93%   23 1016.6        
Aug 14 01:35 Calm   Clear   23 21     92%   23 1016.6        
Aug 14 01:15 Calm   Clear   23 22     91%   24 1016.6        
Aug 14 00:55 WNW 5   Clear   23 22     91%   24 1016.6        
Aug 14 00:15 Calm   Clear   23 22     93%   23 1016.9        
Aug 13 23:55 Calm   Clear   23 22     92%   24 1017.3        
Aug 13 23:35 Calm   Clear   23 22     94%   24 1016.9        
Aug 13 23:15 E 5   Clear   23 22     92%   24 1017.3        
Aug 13 22:35 Calm   Clear   23 22     90%   24 1016.9        
Aug 13 22:15 Calm   Clear   24 22     90%   24 1016.9        
Aug 13 21:55 Calm   Clear   24 22     88%   25 1016.6        
Aug 13 21:35 Calm   Clear CLR 25 22     82%   26 1016.3        
Aug 13 21:15 Calm   Clear CLR 26 22     81%   26 1015.9        
Aug 13 20:55 Calm 16.09 Clear CLR 26 22     81%   26 1015.9        
Aug 13 20:35 Calm 11.27 Clear CLR 25 22     82%   26 1015.9        
Aug 13 20:15 NW 5 16.09 Clear CLR 26 22     78%   27 1016.3        
Aug 13 19:55 NW 5   Clear CLR 26 22     77%   28 1016.3        
Aug 13 19:35 Calm   Clear CLR 26 22     79%   28 1016.3        
Aug 13 19:15 NW 5   Clear CLR 27 22     74%   29 1016.3        
Aug 13 18:55 Calm   Clear CLR 27 22     75%   29 1015.9        
Aug 13 18:35 Calm   Clear CLR 28 22     71%   30 1015.9        
Aug 13 18:15 Calm   Clear CLR 28 22     68%   31 1015.9        
Aug 13 17:55 NNW 5   Clear CLR 28 22     73%   30 1015.9        
Aug 13 17:35 NW 8   Clear CLR 27 22     74%   30 1015.9        
Aug 13 16:55 WNW 8   Partly Cloudy SCT043 SCT050 SCT060 27 22     75%   30 1016.3        
Notice The following observation data may not be complete
Aug 13 16:35     Mostly Cloudy SCT045 BKN050 BKN060          %              
Aug 13 16:15 WNW 8   Clear CLR 29 23     71%   32 1016.3        
Aug 13 15:55 WNW 5   Clear CLR 29 23     70%   34 1015.9        
Aug 13 15:35 W 5   Clear CLR 30 23     67%   33 1016.3        
Notice The following observation data may not be complete
Aug 13 15:15     Clear CLR          %              
Aug 13 14:55 WSW 9   Clear CLR 31 22     57%   34 1016.6        
Aug 13 14:35 WSW 5   Clear CLR 32 22     57%   35 1016.6        
Aug 13 13:55 W 5   Clear CLR 31 22     60%   35 1017.3        
Aug 13 13:35 Calm   Clear CLR 31 23     63%   35 1017.6        
Aug 13 13:15 Calm   Clear CLR 30 23     65%   34 1018        
Aug 13 12:55 W 9   Clear CLR 29 22     66%   33 1018.3        
Aug 13 12:35 W 8   Clear CLR 29 23     68%   33 1018.3        
Aug 13 12:15 SSW 5   Clear CLR 29 22     69%   32 1018.6        
Aug 13 11:55 Calm   Clear CLR 28 22     70%   30 1018.6        
Aug 13 11:35 SW 5   Clear CLR 28 22     71%   30 1018.6        
Aug 13 11:15 Calm   Clear CLR 27 22     72%   30 1018.6        
Aug 13 10:55 Calm   Clear CLR 27 22     73%   29 1018.6        
Aug 13 10:35 Calm   Clear CLR 27 22     73%   29 1018.3        
Aug 13 10:15 Calm   Clear CLR 26 22     76%   28 1018.6        
Aug 13 09:55 NNW 5   Clear CLR 26 22     76%   28 1018.3        
Aug 13 09:35 NW 9   Clear CLR 26 22     76%   27 1018.3        
Aug 13 08:55 W 8   Clear CLR 25 22     81%   26 1018.3        
Notice The following observation data may not be complete
Aug 13 08:35     Clear CLR          %              
Aug 13 07:55 WNW 5   Clear   23 21     88%   23 1018.3        
Notice The following observation data may not be complete
Aug 13 07:15     Clear            %              
Aug 13 06:55 WNW 5 11.27 Clear CLR 22 20     91%   22 1018        
Aug 13 06:35 W 8 11.27 Clear CLR 22 20     91%   22 1017.6        
Aug 13 06:15 Calm 11.27 Clear CLR 22 20     91%   22 1017.3        
Aug 13 05:55 Calm   Clear   22 20     91%   22 1017.6        
Notice The following observation data may not be complete
Aug 13 03:15     Clear            %              
Aug 13 02:35 WSW 5   Clear   22 21     93%   22 1017.6        
Aug 13 01:35 Calm   Clear   22 20     90%   23 1017.6        
Aug 13 01:15 Calm   Clear   22 21     90%   23 1018        
Aug 13 00:35 Calm   Clear CLR 23 21     85%   24 1018.3        
Aug 13 00:15 Calm   Clear CLR 24 20     81%   24 1018.6        
Aug 12 23:35 Calm   Clear CLR 24 21     81%   25 1018.6        
Aug 12 22:55 Calm   Clear CLR 24 21     81%   25 1018.3        
Aug 12 22:35 Calm   Clear CLR 24 21     83%   25 1018.6        
Aug 12 22:15 Calm   Clear CLR 25 21     77%   25 1018.3        
Aug 12 21:55 Calm   Clear CLR 25 20     73%   26 1018.3        
Aug 12 21:35 NW 5   Clear CLR 26 20     71%   26 1018.3        
Aug 12 20:15 WSW 5   Clear CLR 27 22     74%   29 1016.9        
May 15 06:15 Calm 11.27 Clear   18 17     94%     1013.9        
May 14 20:15 Calm 16.09 Clear   24 20     76%   25 1012.9        
May 14 06:35 Calm 6.44 Fog/Mist CLR 17 17     100%     1016.6        
May 14 05:35 Calm 11.27 Clear   17 17     99%     1016.6        
May 14 00:35 Calm 11.27 Clear CLR 19 18     92%     1017.3        
May 13 20:35 Calm 16.09 Clear CLR 23 20     84%   23 1016.6        
May 13 20:15 Calm 16.09 Clear CLR 24 20     81%   24 1016.3        
May 13 18:55 Calm 16.09 Clear CLR 29 21     59%   32 1016.3        
May 13 17:15 NNE 5 16.09 Clear CLR 33 15     34%   32 1016.6        
May 13 16:35 ENE 5 16.09 Clear CLR 33 14     33%   32 1016.6        
May 13 13:35 N 5 16.09 Partly Cloudy SCT060 32 15     36%   32 1019        
May 13 12:15 N 8 16.09 Clear   31 15     39%   31 1020        
May 13 10:35 NNW 9 16.09 Clear CLR 29 17     48%   29 1020.7        
May 13 09:55 NW 8 16.09 Clear CLR 27 18     56%   28 1020.7        
May 13 08:15 Calm 16.09 Clear CLR 22 18     76%   23 1020.3        
May 13 06:35 Calm 8.05 Fog/Mist CLR 16 15     97%     1019.3        
May 13 02:15 Calm 16.09 Clear CLR 17 16     93%     1017.6        
May 12 21:35 Calm 16.09 Clear CLR 21 18     85%     1018.6        
Notice The following observation data may not be complete
May 12 20:15 Calm 16.09 Clear CLR   19      %     1018        
Notice The following observation data may not be complete
May 12 19:55 Calm 16.09 Clear CLR   19      %     1017.6        
May 12 16:55 SSW 8 16.09 Clear CLR 32 11     28%   31 1018        
May 12 15:35 Calm 16.09 Clear CLR 32        %     1018.6        
May 12 06:35 Calm 16.09 Clear CLR 13 12     94%     1020.7        
May 12 02:55 Calm 16.09 Clear CLR 14 13     90%     1018.3        
Notice The following observation data may not be complete
May 12 01:15 Calm 16.09 Clear CLR   13      %     1018.3        
May 11 20:55 Calm 16.09 Clear CLR 21 18     83%     1018        
Jun 11 23:15 SE 8 16.09 Clear   24 24     100%   25 1019.3        
Notice The following observation data may not be complete
Jun 11 20:35   16.09 Clear            %              
Jun 11 20:15 N 5 16.09 Clear   23 23     100%   25 1018        
Notice The following observation data may not be complete
Jun 11 19:35   16.09 Clear            %              
Jun 11 13:55 S 5 16.09 Clear   32 18     44%   33 1019        
Notice The following observation data may not be complete
Jun 11 05:15   16.09 Clear            %              
Jun 11 02:15 Calm 16.09 Clear   19 19     99%     1017.3        
Jun 11 00:35 Calm 16.09 Clear   20 19     96%     1017.6        
Jun 10 22:15 Calm 16.09 Clear   21 19     87%   22 1017.6        
Notice The following observation data may not be complete
Jun 10 20:35 Calm 16.09 Clear     19      %     1016.3        
Jun 10 17:55 SE 9 16.09 Clear   31 16     40%   31 1015.6        
Notice The following observation data may not be complete
Jun 10 15:15   16.09 Clear            %              
Jun 10 12:35 SSE 13 16.09 Clear   29 16     44%   29 1018        
Notice The following observation data may not be complete
Jun 10 11:15   16.09 Clear            %              
Jun 10 07:35 Calm 16.09 Clear   20 18     93%     1016.9        
Notice The following observation data may not be complete
Jun 10 03:55 Calm 16.09 Clear            %     1015.2        
Jun 09 22:35 Calm 16.09 Clear   18 18     98%     1014.9        
Jun 08 06:55 Calm 16.09 Clear   16 15     93%     1012.9        
Notice The following observation data may not be complete
Jun 08 06:35   16.09 Clear            %              
Notice The following observation data may not be complete
Jun 07 18:35   16.09 Clear            %              
Jun 07 14:55 N 17 16.09 Clear   28 15     43%   28 1009.2        
Notice The following observation data may not be complete
Jun 07 10:15   16.09 Clear            %              
Jun 06 14:35 NE 17 16.09 Clear   24 20     77%   25 1007.1        
Jun 06 13:35 NW 9 16.09 Clear   27 21     70%   30 1006.8        
Jun 06 10:15 NNW 8 16.09 Clear   25 23     88%   26 1008.1        
Jun 06 09:55 N 5 16.09 Clear   24 23     92%   25 1008.1        
Jun 05 16:35 WSW 5 16.09 Clear   26 21     78%   26 1007.5